Radiation Dose at Monitoring Post of Fukushima Daini Nuclear Power Station
Date,Time,MP-1(microSv/h),MP-2(microSv/h),MP-3(microSv/h),MP-4(microSv/h),MP-5(microSv/h),MP-6(microSv/h),MP-7(microSv/h),Wind Direction,Wind Velocity(m/s),Rain
2024/04/07,00:00,0.141,0.123,0.200,0.186,0.201,0.112,0.072,northwest,1.5,No
2024/04/07,00:10,0.142,0.124,0.199,0.185,0.200,0.111,0.073,northwest,1.3,No
2024/04/07,00:20,0.142,0.123,0.200,0.187,0.200,0.111,0.073,northwest,0.7,No
2024/04/07,00:30,0.141,0.124,0.200,0.186,0.199,0.112,0.073,-,CALM,No
2024/04/07,00:40,0.141,0.123,0.200,0.185,0.202,0.112,0.074,-,CALM,No
2024/04/07,00:50,0.142,0.124,0.200,0.186,0.199,0.112,0.073,north,0.6,No
2024/04/07,01:00,0.143,0.123,0.199,0.187,0.202,0.112,0.074,north,0.7,No
2024/04/07,01:10,0.142,0.124,0.200,0.187,0.201,0.112,0.074,north,1.2,No
2024/04/07,01:20,0.143,0.124,0.200,0.187,0.201,0.112,0.073,north,1.0,No
2024/04/07,01:30,0.142,0.125,0.200,0.186,0.201,0.113,0.074,north-northeast,0.7,No
2024/04/07,01:40,0.142,0.125,0.201,0.187,0.202,0.112,0.075,north-northeast,1.2,No
2024/04/07,01:50,0.143,0.124,0.199,0.187,0.202,0.112,0.074,north,1.6,No
2024/04/07,02:00,0.142,0.125,0.201,0.187,0.202,0.112,0.073,north,0.7,No
2024/04/07,02:10,0.143,0.124,0.200,0.186,0.201,0.113,0.075,north-northeast,1.1,No
2024/04/07,02:20,0.143,0.125,0.200,0.187,0.202,0.112,0.074,north,2.3,No
2024/04/07,02:30,0.142,0.125,0.200,0.187,0.202,0.112,0.073,north-northwest,1.8,No
2024/04/07,02:40,0.141,0.123,0.201,0.187,0.202,0.113,0.074,north-northwest,2.3,No
2024/04/07,02:50,0.142,0.124,0.202,0.187,0.202,0.112,0.074,northwest,2.4,No
2024/04/07,03:00,0.143,0.125,0.201,0.187,0.201,0.112,0.074,north-northwest,2.6,No
2024/04/07,03:10,0.142,0.125,0.201,0.187,0.202,0.113,0.074,north-northwest,1.8,No
2024/04/07,03:20,0.143,0.125,0.202,0.187,0.202,0.113,0.074,north,2.1,No
2024/04/07,03:30,0.142,0.124,0.201,0.187,0.202,0.112,0.074,-,CALM,No
2024/04/07,03:40,0.142,0.124,0.201,0.187,0.201,0.111,0.074,-,CALM,No
2024/04/07,03:50,0.141,0.125,0.201,0.188,0.202,0.112,0.074,north,1.8,No
2024/04/07,04:00,0.142,0.124,0.201,0.187,0.203,0.113,0.074,north,2.2,No
2024/04/07,04:10,0.142,0.124,0.201,0.187,0.202,0.112,0.074,north-northeast,1.6,No
2024/04/07,04:20,0.142,0.125,0.201,0.188,0.202,0.112,0.074,north,1.3,No
2024/04/07,04:30,0.143,0.124,0.201,0.187,0.200,0.113,0.075,north-northwest,3.3,No
2024/04/07,04:40,0.141,0.125,0.201,0.187,0.204,0.113,0.074,north,2.2,No
2024/04/07,04:50,0.143,0.125,0.201,0.188,0.202,0.113,0.073,north,1.5,No
2024/04/07,05:00,0.142,0.125,0.201,0.186,0.202,0.112,0.075,north,1.4,No
2024/04/07,05:10,0.142,0.125,0.201,0.187,0.201,0.113,0.074,north,0.9,No
2024/04/07,05:20,0.143,0.124,0.201,0.188,0.202,0.112,0.074,north,1.6,No
2024/04/07,05:30,0.142,0.126,0.201,0.188,0.200,0.113,0.074,north-northwest,1.3,No
2024/04/07,05:40,0.142,0.124,0.202,0.188,0.201,0.113,0.074,north,1.1,No
2024/04/07,05:50,0.142,0.125,0.200,0.187,0.202,0.113,0.074,north,1.2,No
2024/04/07,06:00,0.143,0.124,0.202,0.187,0.202,0.112,0.074,north-northwest,0.7,No
2024/04/07,06:10,0.142,0.125,0.201,0.188,0.201,0.113,0.074,north-northwest,1.2,No
2024/04/07,06:20,0.143,0.124,0.199,0.187,0.201,0.113,0.074,north-northwest,1.7,No
2024/04/07,06:30,0.143,0.124,0.202,0.187,0.204,0.113,0.074,north,1.1,No
2024/04/07,06:40,0.142,0.124,0.201,0.188,0.202,0.114,0.075,north-northwest,2.1,No
2024/04/07,06:50,0.143,0.125,0.201,0.187,0.202,0.113,0.074,north,1.4,No
2024/04/07,07:00,0.141,0.124,0.201,0.188,0.202,0.112,0.074,-,CALM,No
2024/04/07,07:10,0.143,0.124,0.201,0.186,0.201,0.113,0.075,north,0.7,No
2024/04/07,07:20,0.143,0.124,0.202,0.188,0.202,0.114,0.074,north,1.4,No
2024/04/07,07:30,0.144,0.125,0.200,0.187,0.202,0.112,0.074,north,1.5,No
2024/04/07,07:40,0.142,0.123,0.200,0.188,0.202,0.113,0.074,north,1.0,No
2024/04/07,07:50,0.142,0.124,0.200,0.185,0.201,0.113,0.074,-,CALM,No
2024/04/07,08:00,0.142,0.124,0.201,0.188,0.203,0.112,0.073,northwest,1.0,No
2024/04/07,08:10,0.141,0.124,0.200,0.186,0.202,0.113,0.074,northwest,1.7,No
2024/04/07,08:20,0.141,0.123,0.200,0.188,0.203,0.113,0.073,north-northwest,2.2,No
2024/04/07,08:30,0.142,0.124,0.200,0.187,0.200,0.113,0.075,north-northwest,1.2,No
2024/04/07,08:40,0.143,0.124,0.200,0.187,0.203,0.113,0.074,north,0.9,No
2024/04/07,08:50,0.142,0.123,0.197,0.186,0.200,0.112,0.074,north-northeast,0.7,No
2024/04/07,09:00,0.143,0.125,0.200,0.187,0.201,0.112,0.073,-,CALM,No
2024/04/07,09:10,0.142,0.124,0.199,0.185,0.201,0.113,0.073,north-northeast,0.6,No
2024/04/07,09:20,0.142,0.124,0.201,0.188,0.201,0.113,0.074,-,CALM,No
2024/04/07,09:30,0.142,0.124,0.200,0.187,0.203,0.112,0.074,north-northeast,1.2,No
2024/04/07,09:40,0.142,0.124,0.201,0.188,0.201,0.112,0.073,north-northeast,1.0,No
2024/04/07,09:50,0.141,0.123,0.199,0.188,0.201,0.113,0.074,north,0.8,No
2024/04/07,10:00,0.142,0.124,0.201,0.186,0.201,0.111,0.073,north-northeast,0.8,No
2024/04/07,10:10,0.142,0.124,0.200,0.188,0.200,0.112,0.073,-,CALM,No
2024/04/07,10:20,0.142,0.124,0.200,0.186,0.202,0.112,0.074,-,CALM,No
2024/04/07,10:30,0.142,0.123,0.201,0.186,0.200,0.112,0.073,south-southeast,0.6,No
2024/04/07,10:40,0.141,0.124,0.200,0.188,0.201,0.112,0.073,south,1.7,No
2024/04/07,10:50,0.142,0.123,0.201,0.186,0.202,0.112,0.073,southeast,1.4,No
2024/04/07,11:00,0.141,0.124,0.201,0.186,0.199,0.112,0.073,east-southeast,2.0,No
2024/04/07,11:10,0.142,0.124,0.201,0.188,0.202,0.112,0.074,east-southeast,1.9,No
2024/04/07,11:20,0.142,0.123,0.201,0.185,0.201,0.112,0.073,east-northeast,2.2,No
2024/04/07,11:30,0.141,0.124,0.200,0.189,0.200,0.112,0.074,east-northeast,1.7,No
2024/04/07,11:40,0.142,0.124,0.202,0.187,0.204,0.112,0.073,east,1.3,No
2024/04/07,11:50,0.141,0.125,0.201,0.186,0.200,0.111,0.073,east-northeast,1.9,No
2024/04/07,12:00,0.143,0.124,0.200,0.189,0.202,0.113,0.073,east-northeast,1.1,No
2024/04/07,12:10,0.142,0.124,0.201,0.187,0.202,0.112,0.073,east,1.5,No
2024/04/07,12:20,0.141,0.124,0.201,0.186,0.199,0.112,0.074,east-northeast,2.0,No
2024/04/07,12:30,0.142,0.123,0.201,0.188,0.202,0.112,0.073,east,1.7,No
2024/04/07,12:40,0.140,0.124,0.201,0.187,0.201,0.111,0.074,east-northeast,1.6,No
2024/04/07,12:50,0.143,0.123,0.200,0.187,0.200,0.112,0.073,east,2.3,No
2024/04/07,13:00,0.142,0.124,0.202,0.189,0.203,0.112,0.074,east,1.3,No
2024/04/07,13:10,0.142,0.123,0.199,0.187,0.202,0.112,0.073,east,1.6,No
2024/04/07,13:20,0.143,0.124,0.202,0.189,0.200,0.112,0.072,southeast,1.1,No
2024/04/07,13:30,0.141,0.123,0.201,0.188,0.203,0.111,0.073,east-southeast,1.6,No
2024/04/07,13:40,0.143,0.124,0.201,0.187,0.201,0.113,0.073,southeast,2.2,No
2024/04/07,13:50,0.142,0.124,0.203,0.189,0.199,0.113,0.073,east-southeast,1.7,No
2024/04/07,14:00,0.142,0.124,0.201,0.188,0.201,0.112,0.073,southeast,1.8,No
2024/04/07,14:10,0.143,0.124,0.201,0.187,0.201,0.113,0.074,southeast,2.2,No
2024/04/07,14:20,0.142,0.124,0.203,0.189,0.200,0.112,0.074,southeast,2.1,No
2024/04/07,14:30,0.142,0.123,0.201,0.187,0.203,0.111,0.074,south-southeast,3.1,No
2024/04/07,14:40,0.143,0.124,0.201,0.187,0.202,0.112,0.073,southeast,3.7,No
2024/04/07,14:50,0.141,0.123,0.202,0.189,0.201,0.112,0.073,southeast,3.4,No
2024/04/07,15:00,0.141,0.124,0.201,0.188,0.201,0.112,0.074,south-southeast,3.6,No
2024/04/07,15:10,0.143,0.124,0.201,0.187,0.203,0.113,0.073,south-southeast,4.2,No
2024/04/07,15:20,0.141,0.124,0.201,0.190,0.202,0.111,0.073,south-southeast,3.1,No
2024/04/07,15:30,0.142,0.125,0.201,0.187,0.200,0.112,0.073,south-southeast,3.1,No
2024/04/07,15:40,0.144,0.123,0.203,0.189,0.200,0.113,0.073,south-southeast,5.4,No
2024/04/07,15:50,0.142,0.125,0.201,0.189,0.203,0.112,0.073,south-southeast,5.7,No
2024/04/07,16:00,0.142,0.124,0.203,0.189,0.202,0.112,0.074,south-southeast,6.1,No
2024/04/07,16:10,0.143,0.125,0.202,0.188,0.200,0.112,0.073,south-southeast,7.0,No
2024/04/07,16:20,0.142,0.124,0.203,0.189,0.203,0.112,0.073,south-southeast,7.9,No
2024/04/07,16:30,0.142,0.124,0.202,0.188,0.202,0.113,0.074,south,7.4,No
2024/04/07,16:40,0.143,0.124,0.203,0.188,0.200,0.112,0.074,south-southeast,7.7,No
2024/04/07,16:50,0.144,0.124,0.202,0.189,0.204,0.113,0.074,south,8.3,No
2024/04/07,17:00,0.143,0.123,0.202,0.189,0.201,0.112,0.074,south-southeast,6.6,No
2024/04/07,17:10,0.143,0.125,0.202,0.189,0.203,0.113,0.073,south,6.6,No
2024/04/07,17:20,0.144,0.124,0.203,0.189,0.203,0.112,0.074,south,6.3,No
2024/04/07,17:30,0.143,0.124,0.202,0.188,0.202,0.114,0.074,south-southeast,6.9,No
2024/04/07,17:40,0.143,0.124,0.202,0.190,0.204,0.112,0.074,south-southeast,7.4,No
2024/04/07,17:50,0.143,0.125,0.202,0.188,0.203,0.113,0.073,south-southeast,8.7,No
2024/04/07,18:00,0.143,0.124,0.202,0.190,0.205,0.111,0.073,south,8.1,No
2024/04/07,18:10,0.143,0.125,0.203,0.188,0.202,0.112,0.074,south,7.9,No
2024/04/07,18:20,0.142,0.124,0.202,0.190,0.204,0.112,0.074,south,6.6,No
2024/04/07,18:30,0.143,0.124,0.202,0.188,0.202,0.113,0.073,south,6.4,No
2024/04/07,18:40,0.142,0.124,0.202,0.192,0.203,0.113,0.074,south,7.7,No
2024/04/07,18:50,0.142,0.124,0.202,0.188,0.202,0.112,0.074,south,7.1,No
2024/04/07,19:00,0.142,0.125,0.202,0.188,0.203,0.112,0.074,south,6.6,No
2024/04/07,19:10,0.141,0.124,0.202,0.188,0.201,0.113,0.073,south,7.9,No
2024/04/07,19:20,0.142,0.125,0.203,0.189,0.202,0.113,0.073,south,8.1,No
2024/04/07,19:30,0.143,0.124,0.202,0.189,0.203,0.113,0.074,south,7.0,No
2024/04/07,19:40,0.142,0.124,0.202,0.188,0.202,0.113,0.073,south,6.4,No
2024/04/07,19:50,0.142,0.125,0.201,0.188,0.203,0.113,0.073,south,6.0,No
2024/04/07,20:00,0.142,0.124,0.202,0.189,0.203,0.113,0.074,south,6.2,No
2024/04/07,20:10,0.143,0.125,0.202,0.189,0.202,0.113,0.074,south,6.4,No
2024/04/07,20:20,0.142,0.125,0.203,0.189,0.202,0.113,0.073,south,6.6,No
2024/04/07,20:30,0.142,0.124,0.203,0.190,0.203,0.113,0.073,south,6.1,No
2024/04/07,20:40,0.142,0.124,0.202,0.188,0.202,0.112,0.073,south,6.5,No
2024/04/07,20:50,0.143,0.125,0.203,0.190,0.202,0.112,0.074,south,6.5,No
2024/04/07,21:00,0.142,0.124,0.203,0.189,0.201,0.112,0.074,south,6.0,No
2024/04/07,21:10,0.142,0.124,0.202,0.189,0.203,0.112,0.073,south,7.1,No
2024/04/07,21:20,0.142,0.124,0.202,0.189,0.202,0.112,0.074,south,5.8,No
2024/04/07,21:30,0.143,0.124,0.201,0.189,0.203,0.114,0.074,south,5.7,No
2024/04/07,21:40,0.143,0.124,0.203,0.188,0.201,0.111,0.074,south,5.1,No
2024/04/07,21:50,0.142,0.124,0.203,0.188,0.202,0.112,0.073,south,4.9,No
2024/04/07,22:00,0.143,0.125,0.202,0.189,0.200,0.113,0.074,south,4.9,No
2024/04/07,22:10,0.142,0.125,0.203,0.188,0.203,0.113,0.074,south,4.9,No
2024/04/07,22:20,0.143,0.124,0.202,0.189,0.202,0.112,0.073,south,5.2,No
2024/04/07,22:30,0.142,0.125,0.203,0.187,0.202,0.113,0.074,south,4.9,No
2024/04/07,22:40,0.143,0.124,0.202,0.189,0.202,0.112,0.073,south,3.1,No
2024/04/07,22:50,0.142,0.124,0.202,0.189,0.203,0.113,0.074,south,3.6,No
2024/04/07,23:00,0.143,0.124,0.203,0.188,0.202,0.112,0.074,south,3.1,No
2024/04/07,23:10,0.143,0.125,0.202,0.188,0.203,0.113,0.073,south-southeast,2.3,No
2024/04/07,23:20,0.143,0.125,0.203,0.188,0.204,0.113,0.074,south-southeast,2.3,No
2024/04/07,23:30,0.143,0.125,0.203,0.190,0.201,0.113,0.074,south-southeast,2.9,No
2024/04/07,23:40,0.143,0.125,0.203,0.189,0.203,0.114,0.074,south,3.1,No
2024/04/07,23:50,0.144,0.125,0.204,0.190,0.202,0.113,0.074,south,3.6,No
